Location: Kelshall
(52.0000°N, 0.0500°W)
Time: 19:48:03
(UTC+00:00)

Envisat - Visible Passes

Search period start: 25 November 2020 00:00
Search period end: 05 December 2020 00:00
Orbit: 764 x 766 km, 98.1° (Epoch: 25 November)

Date Brightness Start Highest point End Pass type
(mag) Time Alt. Az. Time Alt. Az. Time Alt. Az.
25 Nov 3.9 05:41:36 10° NNE 05:46:34 51° E 05:51:30 10° S visible
25 Nov 3.3 17:01:40 10° S 17:06:45 74° WSW 17:11:52 10° NNW visible
25 Nov 6.2 18:44:39 10° WSW 18:46:42 12° W 18:48:44 10° WNW visible
26 Nov 5.2 05:05:13 10° NE 05:09:30 26° E 05:13:44 10° SSE visible
26 Nov 3.1 06:43:52 10° N 06:48:50 54° WNW 06:53:45 10° SW visible
26 Nov 3.1 16:24:59 10° SSE 16:29:58 59° ENE 16:34:58 10° N visible
26 Nov 5.4 18:05:17 10° SW 18:09:22 24° W 18:13:29 10° NW visible
27 Nov 6.1 04:29:42 10° NE 04:32:12 14° E 04:34:42 10° ESE visible
27 Nov 3.1 06:06:57 10° NNE 06:12:04 81° ESE 06:17:10 10° SSW visible
27 Nov 4.2 17:27:23 10° S 17:32:16 46° W 17:37:10 10° NNW visible
28 Nov 4.3 05:30:18 10° NNE 05:35:08 41° E 05:39:55 10° SSE visible
28 Nov 3.0 16:50:16 10° SSE 16:55:21 89° W 17:00:29 10° NNW visible
28 Nov 6.1 18:32:13 10° WSW 18:35:08 15° W 18:38:03 10° NW visible
29 Nov 5.5 04:54:05 10° NE 04:57:59 22° E 05:01:52 10° SE visible
29 Nov 3.0 06:32:25 10° N 06:37:28 65° WNW 06:42:29 10° SSW visible
29 Nov 5.1 17:53:28 10° SSW 17:57:52 29° W 18:02:18 10° NNW visible
30 Nov 6.3 04:19:22 10° ENE 04:20:38 11° E 04:21:53 10° E visible
30 Nov 3.4 05:55:35 10° NNE 06:00:40 67° ESE 06:05:43 10° S visible
30 Nov 3.8 17:15:50 10° S 17:20:49 56° W 17:25:51 10° NNW visible
01 Dec 4.7 05:19:02 10° NNE 05:23:40 34° E 05:28:16 10° SSE visible
01 Dec 3.4 06:58:00 10° N 07:02:47 42° WNW 07:07:32 10° SW visible
01 Dec 3.0 16:38:54 10° SSE 16:43:58 76° ENE 16:49:04 10° NNW visible
01 Dec 5.8 18:20:04 10° SW 18:23:35 19° W 18:27:07 10° NW visible
02 Dec 5.8 04:43:02 10° NE 04:46:28 18° E 04:49:52 10° SE visible
02 Dec 2.9 06:21:00 10° NNE 06:26:07 79° WNW 06:31:11 10° SSW visible
02 Dec 4.7 17:41:45 10° SSW 17:46:23 35° W 17:51:04 10° NNW visible
03 Dec 3.8 05:44:14 10° NNE 05:49:14 54° E 05:54:13 10° S visible
03 Dec 3.4 17:04:21 10° S 17:09:24 69° WSW 17:14:30 10° NNW visible
03 Dec 6.3 18:47:50 10° W 18:49:24 11° W 18:50:59 10° WNW visible
04 Dec 5.1 05:07:47 10° NNE 05:12:11 28° E 05:16:31 10° SSE visible
04 Dec 3.2 06:46:32 10° N 06:51:27 50° WNW 06:56:21 10° SW visible
04 Dec 3.0 16:27:35 10° SSE 16:32:36 63° ENE 16:37:38 10° N visible
04 Dec 5.5 18:08:06 10° SW 18:12:03 23° W 18:16:02 10° NW visible
